Flag Weather past 2 weeks in Elmshorn, Schleswig-Holstein, Germany

Now
34 °F

Passing clouds.


Feels Like: 23 °F
Forecast: 28 / 33 °F
Wind: 16 mph from East

Location: Hamburg-Fuhlsbuettel

Current Time: Nov 29, 2014 at 4:46:02 AM

Latest Report: Nov 29, 2014 at 3:50 AM


Visibility: N/A

Pressure: 30.15 "Hg

Humidity: 75%

Dew point: 27 °F

Location of ElmshornLocation

Historic Weather in Elmshorn — Graph

°F

Elmshorn temperature yesterday

Maximum temperature yesterday: 36 °F (at 12:20 AM)
Minimum temperature yesterday: 34 °F (at 7:50 AM)
Average temperature yesterday: 35 °F

Past Weeks' High & Low Weather Summary

 TemperatureHumidityPressure
High54 °F (Nov 14, 12:50 PM)100% (Nov 16, 12:20 PM)30.36 "Hg (Nov 16, 12:20 PM)
Low28 °F (Nov 21, 2:20 AM)75% (Nov 27, 12:20 PM)29.56 "Hg (Nov 16, 12:20 PM)
Average43 °F91%30.04 "Hg
* Reported Nov 14 3:20 AM — Nov 29 3:20 AM, Elmshorn, Weather by CustomWeather, © 2014

Note: Actual official high and low records may vary slightly from our data, if they occured in-between our weather recording intervals... More about our weather records

Advertising

Elmshorn weather history for previous 24 hours

 ConditionsComfort  
Time TempWeatherWind HumidityBarometerVisibility
3:20 AM
Nov 29
34 °FPassing clouds.15 mph75%30.15 "HgN/A
2:50 AM34 °FPassing clouds.14 mph75%30.15 "HgN/A
2:20 AM34 °FPassing clouds.14 mph81%30.15 "HgN/A
1:50 AM34 °FPassing clouds.13 mph81%30.15 "HgN/A
1:20 AM34 °FPassing clouds.14 mph81%30.15 "HgN/A
12:50 AM34 °FPassing clouds.15 mph81%30.15 "HgN/A
12:20 AM34 °FPassing clouds.14 mph81%30.15 "HgN/A
11:50 PM
Nov 28
34 °FPassing clouds.14 mph81%30.15 "HgN/A
11:20 PM36 °FPassing clouds.16 mph75%30.15 "HgN/A
10:50 PM36 °FPassing clouds.15 mph75%30.15 "HgN/A
10:20 PM36 °FPassing clouds.15 mph75%30.15 "HgN/A
9:50 PM36 °FPassing clouds.15 mph75%30.15 "HgN/A
9:20 PM36 °FPassing clouds.14 mph75%30.12 "HgN/A
8:50 PM36 °FPassing clouds.15 mph75%30.12 "HgN/A
8:20 PM36 °FPassing clouds.16 mph75%30.12 "HgN/A
7:50 PM36 °FPassing clouds.16 mph75%30.12 "HgN/A
7:20 PM36 °FPassing clouds.16 mph75%30.12 "HgN/A
6:50 PM36 °FPassing clouds.15 mph75%30.12 "HgN/A
6:20 PM36 °FPassing clouds.16 mph75%30.12 "HgN/A
5:50 PM36 °FPassing clouds.16 mph75%30.09 "HgN/A
5:20 PM36 °FPassing clouds.15 mph75%30.09 "HgN/A
4:50 PM36 °FPassing clouds.13 mph75%30.09 "HgN/A
4:20 PM36 °FChilly.13 mph75%30.09 "HgN/A
3:50 PM36 °FPartly sunny.15 mph75%30.09 "HgN/A
3:20 PM36 °FPartly sunny.12 mph75%30.07 "HgN/A
2:50 PM34 °FPartly sunny.14 mph81%30.07 "HgN/A
2:20 PM36 °FPartly sunny.16 mph75%30.07 "HgN/A
1:50 PM34 °FPartly sunny.17 mph81%30.09 "Hg6 mi
1:20 PM34 °FPartly sunny.16 mph81%30.09 "Hg6 mi
12:50 PM34 °FPartly sunny.18 mph81%30.09 "Hg5 mi
12:20 PM36 °FPartly sunny.15 mph81%30.09 "Hg5 mi
11:50 AM36 °FPartly sunny.20 mph81%30.07 "Hg5 mi
11:20 AM36 °FPartly sunny.20 mph81%30.07 "Hg5 mi
10:50 AM36 °FPartly sunny.17 mph81%30.07 "Hg6 mi
10:20 AM36 °FBroken clouds.17 mph81%30.07 "HgN/A
9:50 AM36 °FBroken clouds.18 mph81%30.07 "HgN/A
9:20 AM36 °FBroken clouds.17 mph81%30.07 "Hg6 mi
8:50 AM36 °FBroken clouds.17 mph81%30.07 "Hg5 mi
8:20 AM36 °FBroken clouds.18 mph81%30.04 "Hg5 mi
7:50 AM34 °FPartly cloudy.18 mph87%30.04 "HgN/A
7:20 AM36 °FPartly cloudy.16 mph81%30.04 "HgN/A
6:50 AM36 °FPassing clouds.17 mph81%30.04 "HgN/A
6:20 AM36 °FPassing clouds.16 mph81%30.01 "HgN/A
5:50 AM36 °FPassing clouds.15 mph81%30.01 "HgN/A
5:20 AM36 °FPassing clouds.13 mph87%30.01 "HgN/A
4:50 AM36 °FClear.13 mph81%30.01 "Hg10 mi
4:20 AM36 °FPassing clouds.12 mph81%30.01 "HgN/A
Weather by CustomWeather, © 2014

See weather overviewHow to use our weather pages